Regional Weather Roundup
Issued by NWS Jackson, KY

Home | Current Version | Previous Version | Graphics & Text | Print | Product List | Glossary On
Versions: 1 2 3 4 5 6 7 8 9 10 11 12 13 14 15 16 17 18 19 20 21 22 23 24 25 26 27 28 29 30 31 32 33 34 35 36 37 38 39 40 41 42 43 44 45 46 47 48 49 50
000
ASUS43 KJKL 300705
RWRJKL

EAST KENTUCKY HOURLY WEATHER ROUNDUP
NATIONAL WEATHER SERVICE JACKSON KY
200 AM EST FRI JAN 30 2015

NOTE: "FAIR" INDICATES FEW OR NO CLOUDS BELOW 12,000 FEET WITH
NO SIGNIFICANT WEATHER AND/OR OBSTRUCTIONS TO VISIBILITY.

* THESE REPORTS ARE NOT UNDER NWS QUALITY CONTROL AND MAY NOT
  REPORT WEATHER SUCH AS PRECIPITATION AND FOG.

KYZ079-080-083-085-087-088-110-112-115-119-120-300800
...EASTERN KENTUCKY...

CITY           SKY/WX    TMP DP  RH WIND       PRES   REMARKS
JACKSON        CLOUDY    32  28  85 NW10      30.18S WCI  24
LONDON         CLOUDY    35  27  72 NW9       30.23R WCI  28
SOMERSET*      CLOUDY    34  28  80 NW10      30.28R WCI  26
MONTICELLO*    CLOUDY    36  30  79 NW8       30.30R WCI  30
MIDDLESBORO*   CLOUDY    35  31  87 N12       30.22R WCI  26
HARLAN APT*    CLOUDY    32  30  93 W10G17    30.18R WCI  24
BLACK MTN*       N/A     23  23 100 VRB7        N/A  WCI  15
PIKEVILLE APT* CLOUDY    32  28  86 W12G17    30.15R WCI  23
BIG SANDY*     CLOUDY    33  31  92 NW6       30.16S WCI  27
MOREHEAD APT*  CLOUDY    32  30  93 W7G15     30.22R WCI  26
$$

KYZ035-036-041-042-044-050-067-078-099-300800
...CENTRAL KENTUCKY...

CITY           SKY/WX    TMP DP  RH WIND       PRES   REMARKS
MT STERLING*   CLOUDY    32  30  93 NW6       30.23S WCI  26
FLEMING/MASON* CLOUDY    32  28  85 NW13      30.21R WCI  22
DANVILLE*      CLOUDY    32  30  93 NW7       30.26S WCI  26
RICHMOND*      CLOUDY    34  28  80 W9        30.24R WCI  26
LEXINGTON      CLOUDY    33  29  85 W8        30.24S WCI  26
FRANKFORT      CLOUDY    34  28  79 W6        30.24S WCI  29
$$

KYZ091>093-OHZ055-061-077-WVZ005-015-034-035-042-300800
...SOUTHERN OHIO/WEST VIRGINIA...

CITY           SKY/WX    TMP DP  RH WIND       PRES   REMARKS
COVINGTON      CLOUDY    34  26  72 NW12      30.20S WCI  25
COLUMBUS       CLOUDY    31  26  82 NW14      30.11R WCI  21
DAYTON         CLOUDY    33  29  85 W13       30.16S WCI  24
WILMINGTON     MIX PCPN  31  28  89 W12       30.15S FOG     WCI  22
HUNTINGTON     CLOUDY    34  29  82 W10       30.15S WCI  26
CHARLESTON     FLURRIES  34  28  79 W10       30.12R WCI  26
PINEVILLE*     LGT SNOW  35  34  96 MISG      30.13R
BECKLEY        FRZ RAIN  30  26  85 NW15G24   30.02R FOG     WCI  19
BLUEFIELD      CLOUDY    32  26  78 NW22G30   30.01S WCI  19
$$

VAZ002-007-008-TNZ017-027-036-066-071-300800
...SOUTHWEST VIRGINIA/EAST TENNESSEE...

CITY           SKY/WX    TMP DP  RH WIND       PRES   REMARKS
WISE*          LGT SNOW  32  32 100 NW10G18   30.09S WCI  24
JONESVILLE*    LGT RAIN  34  32  93 W10       30.19R WCI  26
ABINGDON*      CLOUDY    37  30  76 NW13G23   30.08R WCI  28
BRISTOL        CLOUDY    38  30  73 W13G22    30.13R WCI  30
KNOXVILLE      CLOUDY    40  29  64 NW12      30.22R WCI  33
OAK RIDGE      CLOUDY    40  27  59 N8        30.24R WCI  34
CROSSVILLE     CLOUDY    35  25  66 N21G31    30.23R WCI  24
NASHVILLE      CLOUDY    40  30  67 NW13G18   30.34S WCI  32
$$

...KEY TO REMARKS...
VSB - VISIBILITY IN MILES
WCI - WIND CHILL INDEX
HX  - HEAT INDEX

$$


USA.gov is the U.S. government's official web portal to all federal, state and local government web resources and services.